| time (UTC) | temp C | wind direction | speed KPH | gust KPH | rain 1hr cm | rain 24hr cm | rain mn cm | humidity % | barometer mb |
| 20260505122024 | 16 | 160 | 0.0 | 1.6 | 0.00 | 0.00 | 0.00 | 63 | 1014.1 |
| 20260505121542 | 15 | 0.0 | 0.0 | 0.00 | 0.00 | 0.00 | 64 | 1014.2 | |
| 20260505121040 | 15 | 0.0 | 0.0 | 0.00 | 0.00 | 0.00 | 66 | 1014.3 | |
| 20260505120518 | 14 | 0.0 | 0.0 | 0.00 | 0.00 | 0.00 | 68 | 1014.3 | |
| 20260505120017 | 13 | 0.0 | 0.0 | 0.00 | 0.00 | 0.00 | 70 | 1014.3 | |
| 20260505115536 | 12 | 0.0 | 0.0 | 0.00 | 0.00 | 0.00 | 73 | 1014.2 | |
| 20260505115054 | 12 | 0.0 | 0.0 | 0.00 | 0.00 | 0.00 | 76 | 1014.1 | |
| 20260505114532 | 11 | 154 | 0.0 | 1.6 | 0.00 | 0.00 | 0.00 | 77 | 1014.1 |
| 20260505114031 | 11 | 0.0 | 0.0 | 0.00 | 0.00 | 0.00 | 78 | 1014.1 | |
| 20260505113529 | 10 | 0.0 | 0.0 | 0.00 | 0.00 | 0.00 | 79 | 1014.0 | |
| 20260505113027 | 10 | 160 | 0.0 | 1.6 | 0.00 | 0.00 | 0.00 | 80 | 1013.9 |
| 20260505112546 | 10 | 155 | 0.0 | 1.6 | 0.00 | 0.00 | 0.00 | 80 | 1014.0 |
| 20260505112024 | 10 | 0.0 | 0.0 | 0.00 | 0.00 | 0.00 | 80 | 1013.9 | |
| 20260505111522 | 10 | 0.0 | 0.0 | 0.00 | 0.00 | 0.00 | 80 | 1013.8 | |
| 20260505111020 | 10 | 0.0 | 0.0 | 0.00 | 0.00 | 0.00 | 80 | 1013.8 | |
| 20260505110519 | 10 | 0.0 | 0.0 | 0.00 | 0.00 | 0.00 | 80 | 1013.6 | |
| 20260505102024 | 10 | 0.0 | 0.0 | 0.00 | 0.00 | 0.00 | 77 | 1013.6 | |
| 20260505101542 | 10 | 152 | 0.0 | 1.6 | 0.00 | 0.00 | 0.00 | 76 | 1013.5 |
| 20260505101020 | 11 | 152 | 0.0 | 1.6 | 0.00 | 0.00 | 0.00 | 76 | 1013.5 |
| 20260505100519 | 11 | 0.0 | 0.0 | 0.00 | 0.00 | 0.00 | 76 | 1013.5 | |
| 20260505100017 | 11 | 0.0 | 0.0 | 0.00 | 0.00 | 0.00 | 75 | 1013.7 | |
| 20260505095555 | 11 | 0.0 | 0.0 | 0.00 | 0.00 | 0.00 | 75 | 1013.6 | |
| 20260505095054 | 11 | 0.0 | 0.0 | 0.00 | 0.00 | 0.00 | 75 | 1013.6 | |
| 20260505094532 | 11 | 0.0 | 0.0 | 0.00 | 0.00 | 0.00 | 75 | 1013.6 | |
| 20260505094031 | 11 | 0.0 | 0.0 | 0.00 | 0.00 | 0.00 | 75 | 1013.8 | |
| 20260505093529 | 11 | 0.0 | 0.0 | 0.00 | 0.00 | 0.00 | 73 | 1013.7 | |
| 20260505093027 | 11 | 0.0 | 0.0 | 0.00 | 0.00 | 0.00 | 73 | 1013.8 | |
| 20260505092525 | 11 | 0.0 | 0.0 | 0.00 | 0.00 | 0.00 | 74 | 1013.9 | |
| 20260505092023 | 11 | 153 | 0.0 | 1.6 | 0.00 | 0.00 | 0.00 | 73 | 1013.7 |
| 20260505091522 | 11 | 0.0 | 0.0 | 0.00 | 0.00 | 0.00 | 73 | 1013.7 | |
| 20260505091020 | 12 | 0.0 | 0.0 | 0.00 | 0.00 | 0.00 | 72 | 1013.7 | |
| 20260505090519 | 12 | 0.0 | 0.0 | 0.00 | 0.00 | 0.00 | 72 | 1013.6 | |
| 20260505090017 | 12 | 0.0 | 0.0 | 0.00 | 0.00 | 0.00 | 72 | 1013.5 | |
| 20260505085535 | 12 | 0.0 | 0.0 | 0.00 | 0.00 | 0.00 | 72 | 1013.4 | |
| 20260505085034 | 12 | 0.0 | 0.0 | 0.00 | 0.00 | 0.00 | 72 | 1013.3 | |
| 20260505084532 | 12 | 0.0 | 0.0 | 0.00 | 0.00 | 0.00 | 70 | 1013.3 | |
| 20260505084031 | 12 | 0.0 | 0.0 | 0.00 | 0.00 | 0.00 | 70 | 1013.3 | |
| 20260505083529 | 12 | 0.0 | 0.0 | 0.00 | 0.00 | 0.00 | 70 | 1013.2 | |
| 20260505083027 | 13 | 0.0 | 0.0 | 0.00 | 0.00 | 0.00 | 69 | 1013.0 | |
| 20260505082525 | 13 | 0.0 | 0.0 | 0.00 | 0.00 | 0.00 | 68 | 1013.0 | |
| 20260505082024 | 13 | 0.0 | 0.0 | 0.00 | 0.00 | 0.00 | 68 | 1013.0 | |
| 20260505081522 | 13 | 0.0 | 0.0 | 0.00 | 0.00 | 0.00 | 67 | 1013.0 | |
| 20260505081020 | 13 | 0.0 | 0.0 | 0.00 | 0.00 | 0.00 | 67 | 1013.0 | |
| 20260505080518 | 13 | 0.0 | 0.0 | 0.00 | 0.00 | 0.00 | 66 | 1012.9 | |
| 20260505080017 | 14 | 0.0 | 0.0 | 0.00 | 0.00 | 0.00 | 66 | 1012.8 | |
| 20260505075034 | 14 | 0.0 | 0.0 | 0.00 | 0.00 | 0.00 | 64 | 1012.7 | |
| 20260505074532 | 15 | 0.0 | 0.0 | 0.00 | 0.00 | 0.00 | 63 | 1012.9 | |
| 20260505074030 | 15 | 191 | 0.0 | 1.6 | 0.00 | 0.00 | 0.00 | 62 | 1012.8 |
| 20260505073529 | 15 | 194 | 0.0 | 1.6 | 0.00 | 0.00 | 0.00 | 62 | 1012.9 |
| 20260505073027 | 15 | 204 | 0.0 | 3.2 | 0.00 | 0.00 | 0.00 | 61 | 1012.8 |
| 20260505072525 | 15 | 187 | 0.0 | 1.6 | 0.00 | 0.00 | 0.00 | 61 | 1012.8 |
| 20260505072024 | 16 | 193 | 0.0 | 4.8 | 0.00 | 0.00 | 0.00 | 60 | 1013.0 |
| 20260505071522 | 16 | 199 | 1.6 | 3.2 | 0.00 | 0.00 | 0.00 | 60 | 1013.0 |
| 20260505071020 | 16 | 205 | 1.6 | 4.8 | 0.00 | 0.00 | 0.00 | 59 | 1013.0 |
| 20260505070519 | 16 | 211 | 1.6 | 4.8 | 0.00 | 0.00 | 0.00 | 58 | 1013.0 |
| 20260505070017 | 16 | 229 | 3.2 | 6.4 | 0.00 | 0.00 | 0.00 | 57 | 1012.9 |
| 20260505065535 | 16 | 245 | 1.6 | 6.4 | 0.00 | 0.00 | 0.00 | 57 | 1013.1 |
| 20260505065033 | 16 | 214 | 1.6 | 3.2 | 0.00 | 0.00 | 0.00 | 57 | 1013.0 |
| 20260505064552 | 16 | 211 | 1.6 | 3.2 | 0.00 | 0.00 | 0.00 | 57 | 1012.9 |
| 20260505064030 | 16 | 239 | 1.6 | 4.8 | 0.00 | 0.00 | 0.00 | 57 | 1013.0 |
| 20260505063528 | 16 | 224 | 1.6 | 9.7 | 0.00 | 0.00 | 0.00 | 57 | 1013.0 |
| 20260505063027 | 16 | 212 | 3.2 | 6.4 | 0.00 | 0.00 | 0.00 | 57 | 1013.0 |
| 20260505062525 | 17 | 204 | 1.6 | 9.7 | 0.00 | 0.00 | 0.00 | 57 | 1012.9 |
| 20260505062024 | 17 | 240 | 3.2 | 9.7 | 0.00 | 0.00 | 0.00 | 56 | 1012.9 |
| 20260505061522 | 17 | 250 | 3.2 | 4.8 | 0.00 | 0.00 | 0.00 | 57 | 1013.0 |
| 20260505061020 | 17 | 217 | 3.2 | 4.8 | 0.00 | 0.00 | 0.00 | 57 | 1012.9 |
| 20260505060518 | 16 | 227 | 1.6 | 6.4 | 0.00 | 0.00 | 0.00 | 57 | 1012.9 |
| 20260505060017 | 16 | 212 | 3.2 | 6.4 | 0.00 | 0.00 | 0.00 | 57 | 1012.9 |
| 20260505055535 | 16 | 230 | 3.2 | 9.7 | 0.00 | 0.00 | 0.00 | 58 | 1012.9 |
| 20260505055114 | 16 | 218 | 1.6 | 6.4 | 0.00 | 0.00 | 0.00 | 59 | 1012.8 |
| 20260505054532 | 16 | 218 | 1.6 | 4.8 | 0.00 | 0.00 | 0.00 | 60 | 1012.9 |
| 20260505054030 | 16 | 186 | 1.6 | 4.8 | 0.00 | 0.00 | 0.00 | 60 | 1012.9 |
| 20260505053528 | 16 | 179 | 1.6 | 4.8 | 0.00 | 0.00 | 0.00 | 60 | 1012.9 |
| 20260505053027 | 16 | 201 | 1.6 | 3.2 | 0.00 | 0.00 | 0.00 | 60 | 1012.9 |
| 20260505052545 | 16 | 215 | 1.6 | 6.4 | 0.00 | 0.00 | 0.00 | 59 | 1012.9 |
| 20260505052023 | 16 | 225 | 1.6 | 4.8 | 0.00 | 0.00 | 0.00 | 60 | 1013.0 |
| 20260505051521 | 16 | 209 | 1.6 | 3.2 | 0.00 | 0.00 | 0.00 | 59 | 1013.0 |
| 20260505051020 | 16 | 216 | 1.6 | 3.2 | 0.00 | 0.00 | 0.00 | 59 | 1012.8 |
| 20260505050518 | 16 | 199 | 1.6 | 3.2 | 0.00 | 0.00 | 0.00 | 60 | 1012.8 |
| 20260505041521 | 16 | 175 | 0.0 | 1.6 | 0.00 | 0.00 | 0.00 | 60 | 1012.5 |
| 20260505041019 | 16 | 169 | 0.0 | 1.6 | 0.00 | 0.00 | 0.00 | 60 | 1012.6 |
| 20260505040518 | 16 | 220 | 1.6 | 4.8 | 0.00 | 0.00 | 0.00 | 60 | 1012.7 |
| 20260505040016 | 16 | 188 | 0.0 | 1.6 | 0.00 | 0.00 | 0.00 | 59 | 1012.7 |
| 20260505035534 | 17 | 213 | 1.6 | 3.2 | 0.00 | 0.00 | 0.00 | 59 | 1012.7 |
| 20260505035033 | 17 | 207 | 1.6 | 1.6 | 0.00 | 0.00 | 0.00 | 59 | 1012.8 |
| 20260505034631 | 17 | 223 | 1.6 | 4.8 | 0.00 | 0.00 | 0.00 | 59 | 1012.7 |
| 20260505034030 | 17 | 205 | 0.0 | 3.2 | 0.00 | 0.00 | 0.00 | 58 | 1012.8 |
| 20260505033528 | 17 | 183 | 0.0 | 1.6 | 0.00 | 0.00 | 0.00 | 58 | 1012.8 |
| 20260505033026 | 17 | 216 | 0.0 | 3.2 | 0.00 | 0.00 | 0.00 | 58 | 1012.7 |
| 20260505032525 | 17 | 219 | 0.0 | 3.2 | 0.00 | 0.00 | 0.00 | 58 | 1012.8 |
| 20260505032023 | 17 | 188 | 0.0 | 1.6 | 0.00 | 0.00 | 0.00 | 57 | 1012.9 |
| 20260505031521 | 17 | 184 | 0.0 | 1.6 | 0.00 | 0.00 | 0.00 | 57 | 1012.8 |
| 20260505031019 | 17 | 197 | 0.0 | 3.2 | 0.00 | 0.00 | 0.00 | 57 | 1012.8 |
| 20260505030518 | 17 | 151 | 0.0 | 1.6 | 0.00 | 0.00 | 0.00 | 56 | 1012.9 |
| 20260505030016 | 17 | 0.0 | 0.0 | 0.00 | 0.00 | 0.00 | 56 | 1012.9 | |
| 20260505025534 | 18 | 171 | 0.0 | 1.6 | 0.00 | 0.00 | 0.00 | 55 | 1012.9 |
| 20260505025033 | 18 | 188 | 0.0 | 1.6 | 0.00 | 0.00 | 0.00 | 54 | 1012.8 |
| 20260505024531 | 18 | 205 | 1.6 | 4.8 | 0.00 | 0.00 | 0.00 | 53 | 1012.9 |
| 20260505024030 | 18 | 193 | 0.0 | 3.2 | 0.00 | 0.00 | 0.00 | 53 | 1013.0 |
| 20260505023528 | 19 | 191 | 1.6 | 3.2 | 0.00 | 0.00 | 0.00 | 52 | 1013.0 |
| 20260505023026 | 19 | 221 | 1.6 | 6.4 | 0.00 | 0.00 | 0.00 | 52 | 1012.9 |
| 20260505022524 | 19 | 210 | 1.6 | 4.8 | 0.00 | 0.00 | 0.00 | 52 | 1012.9 |
| 20260505022022 | 19 | 213 | 1.6 | 3.2 | 0.00 | 0.00 | 0.00 | 51 | 1012.9 |
| 20260505021521 | 19 | 227 | 1.6 | 9.7 | 0.00 | 0.00 | 0.00 | 51 | 1012.9 |
| 20260505021020 | 19 | 227 | 1.6 | 4.8 | 0.00 | 0.00 | 0.00 | 51 | 1012.9 |
| 20260505020517 | 19 | 194 | 1.6 | 3.2 | 0.00 | 0.00 | 0.00 | 52 | 1012.8 |
| 20260505020016 | 20 | 194 | 0.0 | 4.8 | 0.00 | 0.00 | 0.00 | 52 | 1012.8 |
| 20260505015534 | 20 | 218 | 3.2 | 9.7 | 0.00 | 0.00 | 0.00 | 51 | 1012.8 |
| 20260505015053 | 20 | 237 | 3.2 | 9.7 | 0.00 | 0.00 | 0.00 | 52 | 1012.8 |
| 20260505014531 | 20 | 205 | 1.6 | 6.4 | 0.00 | 0.00 | 0.00 | 52 | 1012.8 |
| 20260505014029 | 20 | 220 | 1.6 | 6.4 | 0.00 | 0.00 | 0.00 | 52 | 1012.7 |
| 20260505013528 | 20 | 225 | 3.2 | 6.4 | 0.00 | 0.00 | 0.00 | 51 | 1012.7 |
| 20260505013026 | 20 | 189 | 1.6 | 3.2 | 0.00 | 0.00 | 0.00 | 51 | 1012.7 |
| 20260505012524 | 20 | 227 | 1.6 | 6.4 | 0.00 | 0.00 | 0.00 | 51 | 1012.6 |
| 20260505012022 | 20 | 215 | 1.6 | 6.4 | 0.00 | 0.00 | 0.00 | 51 | 1012.5 |
| 20260505011521 | 20 | 198 | 0.0 | 1.6 | 0.00 | 0.00 | 0.00 | 51 | 1012.4 |
| 20260505011019 | 20 | 195 | 1.6 | 6.4 | 0.00 | 0.00 | 0.00 | 51 | 1012.3 |
| 20260505010558 | 20 | 228 | 1.6 | 11.3 | 0.00 | 0.00 | 0.00 | 50 | 1012.3 |
| 20260505010036 | 20 | 209 | 1.6 | 4.8 | 0.00 | 0.00 | 0.00 | 50 | 1012.3 |
| 20260505005534 | 21 | 229 | 3.2 | 11.3 | 0.00 | 0.00 | 0.00 | 49 | 1012.2 |
| 20260505005032 | 21 | 204 | 1.6 | 4.8 | 0.00 | 0.00 | 0.00 | 49 | 1012.1 |
| 20260505004531 | 21 | 232 | 3.2 | 9.7 | 0.00 | 0.00 | 0.00 | 48 | 1012.0 |
| 20260505004029 | 21 | 229 | 3.2 | 11.3 | 0.00 | 0.00 | 0.00 | 48 | 1012.1 |
| 20260505003527 | 21 | 221 | 3.2 | 12.9 | 0.00 | 0.00 | 0.00 | 47 | 1012.1 |
| 20260505003046 | 21 | 219 | 3.2 | 6.4 | 0.00 | 0.00 | 0.00 | 47 | 1012.2 |
| 20260505002524 | 21 | 219 | 3.2 | 9.7 | 0.00 | 0.00 | 0.00 | 46 | 1012.0 |
| 20260505002022 | 21 | 213 | 3.2 | 6.4 | 0.00 | 0.00 | 0.00 | 46 | 1012.0 |
| 20260505001520 | 22 | 192 | 3.2 | 6.4 | 0.00 | 0.00 | 0.00 | 45 | 1012.0 |
| 20260505001019 | 22 | 224 | 3.2 | 11.3 | 0.00 | 0.00 | 0.00 | 44 | 1011.9 |
| 20260505000517 | 22 | 221 | 4.8 | 17.7 | 0.00 | 0.00 | 0.00 | 45 | 1012.0 |
| 20260505000035 | 22 | 222 | 1.6 | 12.9 | 0.00 | 0.00 | 0.00 | 44 | 1012.0 |
| 20260504235534 | 22 | 234 | 3.2 | 14.5 | 0.00 | 0.00 | 0.00 | 44 | 1011.9 |
| 20260504235032 | 22 | 208 | 1.6 | 6.4 | 0.00 | 0.00 | 0.00 | 45 | 1011.9 |
| 20260504234530 | 22 | 248 | 3.2 | 11.3 | 0.00 | 0.00 | 0.00 | 45 | 1011.9 |
| 20260504234028 | 22 | 230 | 1.6 | 4.8 | 0.00 | 0.00 | 0.00 | 45 | 1012.0 |
| 20260504233547 | 22 | 190 | 3.2 | 9.7 | 0.00 | 0.00 | 0.00 | 45 | 1011.9 |
| 20260504233025 | 22 | 205 | 3.2 | 9.7 | 0.00 | 0.00 | 0.00 | 44 | 1011.9 |
| 20260504232523 | 23 | 220 | 1.6 | 4.8 | 0.00 | 0.00 | 0.00 | 44 | 1012.0 |
| 20260504232022 | 23 | 207 | 1.6 | 6.4 | 0.00 | 0.00 | 0.00 | 44 | 1012.0 |
| 20260504231520 | 23 | 201 | 1.6 | 6.4 | 0.00 | 0.00 | 0.00 | 44 | 1011.8 |
| 20260504231018 | 23 | 237 | 1.6 | 11.3 | 0.00 | 0.00 | 0.00 | 43 | 1011.9 |
| 20260504230517 | 23 | 195 | 1.6 | 9.7 | 0.00 | 0.00 | 0.00 | 43 | 1011.9 |
| 20260504230055 | 23 | 227 | 3.2 | 11.3 | 0.00 | 0.00 | 0.00 | 42 | 1011.9 |
| 20260504225533 | 23 | 242 | 3.2 | 14.5 | 0.00 | 0.00 | 0.00 | 43 | 1011.8 |
| 20260504225032 | 23 | 224 | 3.2 | 6.4 | 0.00 | 0.00 | 0.00 | 43 | 1011.9 |
| 20260504224550 | 23 | 234 | 3.2 | 9.7 | 0.00 | 0.00 | 0.00 | 42 | 1011.9 |
| 20260504224029 | 23 | 249 | 4.8 | 11.3 | 0.00 | 0.00 | 0.00 | 41 | 1012.0 |
| 20260504223526 | 23 | 248 | 3.2 | 11.3 | 0.00 | 0.00 | 0.00 | 42 | 1012.0 |
| 20260504223025 | 23 | 221 | 1.6 | 6.4 | 0.00 | 0.00 | 0.00 | 42 | 1012.1 |
| 20260504222523 | 23 | 237 | 4.8 | 12.9 | 0.00 | 0.00 | 0.00 | 41 | 1012.0 |
| 20260504222021 | 23 | 223 | 3.2 | 9.7 | 0.00 | 0.00 | 0.00 | 41 | 1012.1 |
| 20260504221540 | 23 | 224 | 3.2 | 9.7 | 0.00 | 0.00 | 0.00 | 41 | 1012.1 |
| 20260504221018 | 23 | 217 | 3.2 | 9.7 | 0.00 | 0.00 | 0.00 | 41 | 1012.1 |
| 20260504220516 | 24 | 211 | 3.2 | 11.3 | 0.00 | 0.00 | 0.00 | 41 | 1012.0 |
| 20260504220035 | 25 | 247 | 4.8 | 12.9 | 0.00 | 0.00 | 0.00 | 39 | 1012.1 |
| 20260504215613 | 25 | 216 | 1.6 | 4.8 | 0.00 | 0.00 | 0.00 | 38 | 1012.1 |
| 20260504215031 | 25 | 194 | 3.2 | 11.3 | 0.00 | 0.00 | 0.00 | 38 | 1012.1 |
| 20260504214529 | 25 | 218 | 3.2 | 6.4 | 0.00 | 0.00 | 0.00 | 38 | 1012.2 |
| 20260504214028 | 25 | 239 | 4.8 | 16.1 | 0.00 | 0.00 | 0.00 | 38 | 1012.1 |
| 20260504213526 | 25 | 239 | 4.8 | 12.9 | 0.00 | 0.00 | 0.00 | 37 | 1012.2 |
| 20260504213024 | 25 | 210 | 3.2 | 9.7 | 0.00 | 0.00 | 0.00 | 38 | 1012.1 |
| 20260504212523 | 25 | 187 | 3.2 | 9.7 | 0.00 | 0.00 | 0.00 | 39 | 1012.1 |
| 20260504212021 | 25 | 214 | 3.2 | 11.3 | 0.00 | 0.00 | 0.00 | 39 | 1012.2 |
| 20260504211519 | 25 | 197 | 3.2 | 6.4 | 0.00 | 0.00 | 0.00 | 39 | 1012.2 |
| 20260504211038 | 25 | 219 | 3.2 | 12.9 | 0.00 | 0.00 | 0.00 | 39 | 1012.2 |
| 20260504210516 | 25 | 264 | 3.2 | 14.5 | 0.00 | 0.00 | 0.00 | 39 | 1012.2 |
| 20260504210054 | 25 | 218 | 3.2 | 11.3 | 0.00 | 0.00 | 0.00 | 40 | 1012.3 |
| 20260504205533 | 25 | 243 | 4.8 | 17.7 | 0.00 | 0.00 | 0.00 | 40 | 1012.4 |
| 20260504205051 | 25 | 272 | 4.8 | 14.5 | 0.00 | 0.00 | 0.00 | 40 | 1012.5 |
| 20260504204530 | 25 | 195 | 3.2 | 9.7 | 0.00 | 0.00 | 0.00 | 40 | 1012.5 |
| 20260504204028 | 25 | 211 | 3.2 | 12.9 | 0.00 | 0.00 | 0.00 | 41 | 1012.7 |
| 20260504203526 | 25 | 173 | 3.2 | 6.4 | 0.00 | 0.00 | 0.00 | 41 | 1012.6 |
| 20260504203045 | 25 | 192 | 3.2 | 6.4 | 0.00 | 0.00 | 0.00 | 40 | 1012.7 |
| 20260504202523 | 25 | 211 | 3.2 | 4.8 | 0.00 | 0.00 | 0.00 | 41 | 1012.6 |
| 20260504202021 | 25 | 205 | 3.2 | 6.4 | 0.00 | 0.00 | 0.00 | 40 | 1012.9 |
| 20260504201520 | 25 | 215 | 3.2 | 9.7 | 0.00 | 0.00 | 0.00 | 40 | 1012.9 |
| 20260504201119 | 25 | 231 | 1.6 | 11.3 | 0.00 | 0.00 | 0.00 | 41 | 1012.9 |
| 20260504200536 | 25 | 197 | 3.2 | 11.3 | 0.00 | 0.00 | 0.00 | 42 | 1013.0 |
| 20260504200055 | 25 | 206 | 3.2 | 14.5 | 0.00 | 0.00 | 0.00 | 41 | 1013.0 |
| 20260504195533 | 26 | 196 | 3.2 | 4.8 | 0.00 | 0.00 | 0.00 | 41 | 1013.1 |
| 20260504195031 | 25 | 230 | 3.2 | 11.3 | 0.00 | 0.00 | 0.00 | 41 | 1013.1 |
| 20260504194550 | 25 | 203 | 1.6 | 4.8 | 0.00 | 0.00 | 0.00 | 41 | 1013.2 |
| 20260504194028 | 25 | 177 | 3.2 | 4.8 | 0.00 | 0.00 | 0.00 | 42 | 1013.3 |
| 20260504193546 | 24 | 176 | 1.6 | 4.8 | 0.00 | 0.00 | 0.00 | 42 | 1013.3 |
| 20260504193125 | 24 | 242 | 4.8 | 16.1 | 0.00 | 0.00 | 0.00 | 42 | 1013.4 |
| 20260504192523 | 25 | 236 | 4.8 | 12.9 | 0.00 | 0.00 | 0.00 | 42 | 1013.5 |
| 20260504192021 | 25 | 208 | 3.2 | 4.8 | 0.00 | 0.00 | 0.00 | 42 | 1013.4 |
| 20260504191520 | 25 | 234 | 3.2 | 6.4 | 0.00 | 0.00 | 0.00 | 42 | 1013.7 |
| 20260504191038 | 24 | 232 | 3.2 | 11.3 | 0.00 | 0.00 | 0.00 | 43 | 1013.7 |
| 20260504190536 | 24 | 242 | 4.8 | 11.3 | 0.00 | 0.00 | 0.00 | 42 | 1013.8 |
| 20260504190055 | 24 | 253 | 3.2 | 11.3 | 0.00 | 0.00 | 0.00 | 42 | 1013.8 |
| 20260504185533 | 25 | 217 | 1.6 | 14.5 | 0.00 | 0.00 | 0.00 | 42 | 1013.9 |
| 20260504185031 | 24 | 181 | 1.6 | 6.4 | 0.00 | 0.00 | 0.00 | 43 | 1013.9 |
| 20260504184529 | 24 | 225 | 3.2 | 11.3 | 0.00 | 0.00 | 0.00 | 43 | 1013.9 |
| 20260504184028 | 24 | 229 | 3.2 | 12.9 | 0.00 | 0.00 | 0.00 | 42 | 1014.1 |
| 20260504183526 | 23 | 214 | 3.2 | 9.7 | 0.00 | 0.00 | 0.00 | 43 | 1014.3 |
| 20260504183025 | 24 | 253 | 4.8 | 12.9 | 0.00 | 0.00 | 0.00 | 42 | 1014.4 |
| 20260504182523 | 24 | 171 | 3.2 | 11.3 | 0.00 | 0.00 | 0.00 | 42 | 1014.4 |
| 20260504182021 | 25 | 186 | 3.2 | 9.7 | 0.00 | 0.00 | 0.00 | 41 | 1014.4 |
| 20260504181519 | 24 | 210 | 1.6 | 6.4 | 0.00 | 0.00 | 0.00 | 43 | 1014.4 |
| 20260504181018 | 23 | 199 | 1.6 | 9.7 | 0.00 | 0.00 | 0.00 | 43 | 1014.5 |
| 20260504180516 | 23 | 233 | 3.2 | 12.9 | 0.00 | 0.00 | 0.00 | 43 | 1014.7 |
| 20260504180034 | 23 | 277 | 6.4 | 20.9 | 0.00 | 0.00 | 0.00 | 42 | 1014.6 |
| 20260504175533 | 23 | 211 | 4.8 | 22.5 | 0.00 | 0.00 | 0.00 | 43 | 1014.7 |
| 20260504175031 | 22 | 235 | 3.2 | 9.7 | 0.00 | 0.00 | 0.00 | 44 | 1014.7 |
| 20260504174529 | 22 | 251 | 4.8 | 12.9 | 0.00 | 0.00 | 0.00 | 44 | 1014.8 |
| 20260504174028 | 22 | 248 | 3.2 | 9.7 | 0.00 | 0.00 | 0.00 | 43 | 1015.0 |
| 20260504173526 | 22 | 247 | 3.2 | 11.3 | 0.00 | 0.00 | 0.00 | 43 | 1015.0 |
| 20260504173024 | 22 | 244 | 4.8 | 14.5 | 0.00 | 0.00 | 0.00 | 44 | 1015.0 |
| 20260504172522 | 22 | 241 | 4.8 | 14.5 | 0.00 | 0.00 | 0.00 | 43 | 1015.1 |
| 20260504172021 | 22 | 246 | 6.4 | 22.5 | 0.00 | 0.00 | 0.00 | 44 | 1015.1 |
| 20260504171519 | 21 | 259 | 3.2 | 17.7 | 0.00 | 0.00 | 0.00 | 44 | 1015.2 |
| 20260504171018 | 21 | 240 | 6.4 | 27.4 | 0.00 | 0.00 | 0.00 | 44 | 1015.2 |
| 20260504170516 | 21 | 242 | 8.0 | 24.1 | 0.00 | 0.00 | 0.00 | 44 | 1015.3 |
| 20260504151057 | 18 | 232 | 3.2 | 12.9 | 0.00 | 0.00 | 0.00 | 50 | 1016.9 |
| 20260504150535 | 18 | 219 | 3.2 | 14.5 | 0.00 | 0.00 | 0.00 | 49 | 1016.8 |
| 20260504141016 | 17 | 156 | 1.6 | 6.4 | 0.00 | 0.00 | 0.00 | 50 | 1017.5 |
| 20260504140535 | 16 | 169 | 1.6 | 4.8 | 0.00 | 0.00 | 0.00 | 51 | 1017.5 |
| 20260504130534 | 13 | 205 | 1.6 | 3.2 | 0.00 | 0.00 | 0.00 | 60 | 1017.4 |